GW3642 Weather Reports


time (UTC)temp
F
wind
direction
speed
knots
gust
knots
rain 1hr
in
rain 24hr
in
rain mn
in
humidity
%
barometer
mb
20260506215007 54 293 3.5 7.0 0.00 1.00 0.33 52 1011.3
20260506214504 54 327 1.7 6.1 0.00 1.01 0.33 54 1011.2
20260506214004 54 311 2.6 7.0 0.00 1.01 0.33 53 1011.2
20260506213503 54 319 3.5 10.4 0.00 1.03 0.33 51 1011.1
20260506213003 54 311 5.2 10.4 0.00 1.04 0.33 51 1011.1
20260506212503 54 306 3.5 7.8 0.00 1.05 0.33 51 1011.2
20260506212003 54 330 4.3 7.8 0.00 1.08 0.33 51 1011.0
20260506211509 55 309 2.6 5.2 0.00 1.14 0.33 53 1011.0
20260506211003 55 281 2.6 5.2 0.00 1.19 0.33 51 1011.0
20260506210503 55 349 1.7 4.3 0.00 1.21 0.33 53 1011.1
20260506210015 54 268 2.6 7.0 0.00 1.21 0.33 53 1011.1
20260506205508 54 318 1.7 7.8 0.00 1.21 0.33 52 1011.1
20260506205007 54 65 3.5 7.8 0.00 1.21 0.33 51 1010.9
20260506204520 55 302 3.5 7.8 0.00 1.21 0.33 51 1010.9
20260506204012 55 300 3.5 7.8 0.00 1.21 0.33 51 1010.8
20260506203507 55 280 2.6 9.6 0.00 1.21 0.33 51 1010.7
20260506203023 55 44 3.5 9.6 0.00 1.21 0.33 50 1010.7
20260506202503 55 314 2.6 6.1 0.00 1.21 0.33 52 1010.7
20260506202005 55 250 2.6 6.1 0.00 1.21 0.33 52 1010.7
20260506201508 55 357 1.7 6.1 0.00 1.21 0.33 53 1010.8
20260506201004 55 43 1.7 6.1 0.00 1.21 0.33 53 1010.6
20260506200503 55 315 2.6 6.1 0.00 1.21 0.33 52 1010.7
20260506200009 54 295 1.7 6.1 0.00 1.21 0.33 53 1010.7
20260506195503 54 321 2.6 8.7 0.00 1.21 0.33 55 1010.9
20260506195003 54 322 3.5 8.7 0.00 1.21 0.33 53 1010.8
20260506194513 55 310 2.6 7.0 0.00 1.21 0.33 55 1010.8
20260506194006 54 326 1.7 7.0 0.00 1.21 0.33 54 1010.9
20260506193509 54 288 2.6 7.8 0.00 1.21 0.33 56 1010.9
20260506193018 54 303 3.5 7.8 0.00 1.21 0.33 54 1010.8
20260506192504 54 300 3.5 8.7 0.00 1.21 0.33 53 1010.8
20260506192008 55 303 3.5 8.7 0.00 1.21 0.33 54 1010.8
20260506191524 55 292 3.5 7.0 0.00 1.21 0.33 53 1010.8
20260506191010 55 295 2.6 7.0 0.00 1.21 0.33 54 1010.7
20260506190514 56 51 2.6 7.8 0.00 1.21 0.33 50 1010.6
20260506190010 56 310 2.6 7.8 0.00 1.21 0.33 52 1010.5
20260506185503 56 283 2.6 12.2 0.00 1.21 0.33 52 1010.5
20260506185003 56 311 2.6 12.2 0.00 1.21 0.33 52 1010.5
20260506184516 56 317 3.5 10.4 0.00 1.21 0.33 51 1010.7
20260506184008 56 313 5.2 10.4 0.00 1.21 0.33 53 1010.8
20260506183505 57 339 3.5 7.8 0.00 1.21 0.33 52 1010.6
20260506183018 57 356 2.6 7.8 0.00 1.21 0.33 54 1010.6
20260506182504 57 329 4.3 12.2 0.00 1.21 0.33 51 1010.8
20260506182009 57 4 3.5 12.2 0.00 1.21 0.33 50 1010.8
20260506181524 57 290 2.6 7.8 0.00 1.21 0.33 52 1010.8
20260506181008 57 331 3.5 7.8 0.00 1.21 0.33 52 1010.7
20260506180507 57 57 2.6 11.3 0.00 1.21 0.33 49 1010.7
20260506180025 57 341 4.3 11.3 0.00 1.21 0.33 50 1010.8
20260506175513 57 339 4.3 8.7 0.00 1.21 0.33 52 1010.8
20260506175013 57 324 4.3 7.8 0.00 1.21 0.33 52 1010.6
20260506174527 58 325 2.6 7.8 0.00 1.21 0.33 51 1010.6
20260506174004 58 314 2.6 8.7 0.00 1.21 0.33 54 1010.7
20260506173505 57 288 3.5 8.7 0.00 1.21 0.33 56 1010.8
20260506173013 57 323 2.6 9.6 0.00 1.21 0.33 56 1010.8
20260506172503 57 314 4.3 9.6 0.00 1.21 0.33 55 1010.8
20260506172003 57 309 4.3 9.6 0.00 1.21 0.33 57 1010.7
20260506171521 57 311 1.7 9.6 0.00 1.21 0.33 56 1010.6
20260506171005 56 302 6.1 9.6 0.00 1.21 0.33 55 1010.5
20260506170505 56 319 3.5 7.8 0.00 1.21 0.33 56 1010.7
20260506170021 57 271 2.6 7.8 0.00 1.21 0.33 62 1010.7
20260506165511 56 359 1.7 7.8 0.00 1.21 0.33 60 1010.7
20260506165006 56 34 3.5 7.8 0.00 1.21 0.33 56 1010.8
20260506164527 56 21 3.5 9.6 0.00 1.21 0.33 56 1010.8
20260506164009 56 314 3.5 9.6 0.00 1.21 0.33 57 1010.8
20260506163507 55 33 5.2 9.6 0.00 1.21 0.33 56 1010.6
20260506163026 56 27 4.3 7.8 0.00 1.21 0.33 55 1010.8
20260506162507 55 315 2.6 8.7 0.00 1.21 0.33 63 1010.9
20260506162004 55 340 4.3 9.6 0.00 1.21 0.33 60 1010.9
20260506161514 55 1 2.6 9.6 0.00 1.21 0.33 61 1010.9
20260506161004 55 93 3.5 9.6 0.00 1.21 0.33 63 1010.7
20260506160504 54 304 1.7 6.1 0.00 1.21 0.33 63 1010.5
20260506160019 54 357 1.7 7.0 0.00 1.21 0.33 63 1010.7
20260506155509 54 299 4.3 7.0 0.00 1.21 0.33 67 1010.6
20260506155005 54 279 0.0 7.0 0.00 1.21 0.33 65 1010.5
20260506154526 53 290 1.7 7.0 0.00 1.21 0.33 64 1010.4
20260506154008 54 40 2.6 7.8 0.00 1.21 0.33 63 1010.2
20260506153510 53 43 1.7 7.8 0.00 1.21 0.33 68 1010.1
20260506153026 53 311 1.7 6.1 0.00 1.21 0.33 67 1010.2
20260506152509 53 37 2.6 7.0 0.00 1.21 0.33 68 1010.1
20260506152010 52 11 1.7 7.0 0.00 1.21 0.33 69 1010.1
20260506151529 52 311 1.7 6.1 0.00 1.21 0.33 67 1010.2
20260506151005 51 311 2.6 8.7 0.00 1.21 0.33 72 1010.1
20260506150504 51 294 4.3 8.7 0.00 1.21 0.33 67 1010.0
20260506150015 51 308 2.6 7.0 0.00 1.21 0.33 69 1010.2
20260506145503 51 325 1.7 7.0 0.00 1.21 0.33 69 1010.2
20260506145006 51 291 1.7 6.1 0.00 1.21 0.33 69 1010.1
20260506144519 51 316 0.9 7.8 0.00 1.21 0.33 70 1010.0
20260506144002 51 298 2.6 7.8 0.00 1.21 0.33 68 1010.0
20260506143504 50 315 1.7 6.1 0.00 1.21 0.33 69 1009.8
20260506143006 50 306 3.5 7.8 0.00 1.21 0.33 70 1009.8
20260506142503 50 352 2.6 7.8 0.00 1.21 0.33 71 1009.7
20260506142001 50 296 1.7 7.0 0.00 1.21 0.33 71 1009.6
20260506141508 50 298 4.3 7.8 0.00 1.21 0.33 68 1009.3
20260506141006 50 288 1.7 7.8 0.00 1.21 0.33 72 1009.3
20260506140505 49 324 2.6 8.7 0.00 1.21 0.33 74 1009.2
20260506140012 49 326 3.5 8.7 0.00 1.21 0.33 72 1009.2
20260506135503 49 309 3.5 8.7 0.00 1.21 0.33 74 1009.2
20260506135012 48 312 3.5 8.7 0.00 1.21 0.33 76 1009.2
20260506134518 48 317 0.9 6.1 0.00 1.21 0.33 79 1009.2
20260506134006 48 314 3.5 8.7 0.00 1.21 0.33 78 1009.2
20260506133507 48 313 1.7 8.7 0.00 1.21 0.33 79 1009.2
20260506133018 48 310 1.7 7.0 0.00 1.21 0.33 80 1009.1
20260506132506 47 295 1.7 6.1 0.00 1.21 0.33 80 1009.2
20260506132006 47 311 1.7 6.1 0.00 1.21 0.33 83 1009.2
20260506131507 46 300 2.6 6.1 0.00 1.21 0.33 83 1009.2
20260506131002 46 25 1.7 5.2 0.00 1.21 0.33 83 1009.1
20260506130502 46 12 1.7 5.2 0.00 1.21 0.33 86 1009.3
20260506130008 45 306 1.7 5.2 0.00 1.21 0.33 85 1009.2
20260506125504 45 297 0.9 4.3 0.00 1.21 0.33 86 1009.1
20260506125003 45 295 1.7 4.3 0.00 1.21 0.33 85 1009.1
20260506124512 45 301 1.7 4.3 0.00 1.21 0.33 85 1009.0
20260506124003 45 316 1.7 3.5 0.00 1.21 0.33 87 1008.8
20260506123505 45 329 0.9 1.7 0.00 1.21 0.33 86 1008.7
20260506123019 45 313 0.9 3.5 0.00 1.21 0.33 86 1008.6
20260506122507 45 323 0.9 3.5 0.00 1.21 0.33 85 1008.6
20260506122008 45 334 0.9 3.5 0.00 1.21 0.33 86 1008.4
20260506121526 44 343 0.0 3.5 0.00 1.21 0.33 86 1008.2
20260506121006 44 311 1.7 4.3 0.00 1.21 0.33 86 1008.3
20260506120507 44 4 1.7 4.3 0.00 1.21 0.33 86 1008.1
20260506120027 44 326 1.7 4.3 0.00 1.21 0.33 86 1008.2
20260506115511 45 301 0.9 3.5 0.00 1.21 0.33 87 1008.2
20260506115003 45 307 0.9 5.2 0.00 1.21 0.33 88 1008.0
20260506114508 45 319 0.9 5.2 0.00 1.21 0.33 88 1007.9
20260506114003 44 306 0.9 4.3 0.00 1.21 0.33 88 1007.6
20260506113503 45 314 0.9 7.0 0.00 1.21 0.33 88 1007.5
20260506113012 45 307 2.6 7.0 0.00 1.21 0.33 88 1007.6
20260506112506 45 308 1.7 5.2 0.00 1.21 0.33 90 1007.3
20260506112007 45 346 1.7 5.2 0.00 1.21 0.33 92 1007.2
20260506111521 45 303 0.9 5.2 0.00 1.21 0.33 93 1007.2
20260506111004 45 339 0.9 5.2 0.00 1.21 0.33 93 1006.9
20260506110507 45 307 1.7 4.3 0.00 1.21 0.33 93 1007.1
20260506110024 45 316 0.0 3.5 0.00 1.21 0.33 93 1007.3
20260506105506 45 23 1.7 3.5 0.00 1.21 0.33 93 1007.5
20260506105009 45 330 1.7 2.6 0.00 1.21 0.33 93 1007.4
20260506104527 45 345 0.9 7.8 0.00 1.21 0.33 93 1007.2
20260506104012 45 306 0.0 7.8 0.00 1.21 0.33 93 1007.0
20260506103508 45 16 0.9 7.8 0.00 1.21 0.33 93 1006.7
20260506103010 45 45 1.7 4.3 0.00 1.21 0.33 93 1006.8
20260506102504 45 27 1.7 7.8 0.00 1.21 0.33 93 1007.1
20260506102003 45 323 2.6 7.8 0.00 1.21 0.33 93 1007.2
20260506101514 45 321 2.6 5.2 0.00 1.21 0.33 93 1007.2
20260506101005 45 329 1.7 5.2 0.00 1.21 0.33 93 1006.8
20260506100504 45 284 1.7 3.5 0.00 1.21 0.33 93 1006.7
20260506100020 45 281 0.9 3.5 0.00 1.21 0.33 93 1006.2
20260506095507 45 323 0.9 3.5 0.01 1.21 0.33 93 1006.3
20260506095008 45 22 0.9 4.3 0.01 1.21 0.33 93 1006.0
20260506094528 45 6 0.9 4.3 0.01 1.21 0.33 93 1005.8
20260506094008 45 293 0.9 5.2 0.02 1.21 0.33 93 1005.9
20260506093507 45 326 0.9 5.2 0.02 1.21 0.33 93 1005.6
20260506093034 45 13 0.9 5.2 0.03 1.21 0.33 93 1005.6
20260506092509 45 18 0.0 5.2 0.04 1.21 0.33 93 1005.5
20260506092010 45 6 0.9 6.1 0.06 1.21 0.33 93 1005.5
20260506091528 45 33 1.7 8.7 0.07 1.21 0.33 93 1005.8
20260506091009 45 16 5.2 8.7 0.08 1.21 0.33 93 1005.8
20260506090502 45 16 0.9 7.0 0.08 1.21 0.33 93 1005.8
20260506090008 45 12 1.7 7.0 0.09 1.21 0.33 93 1005.9
20260506085503 45 343 0.0 7.0 0.08 1.20 0.32 93 1006.0
20260506085002 45 356 2.6 6.1 0.08 1.20 0.32 93 1006.2
20260506084513 45 311 1.7 7.0 0.08 1.20 0.32 93 1006.4
20260506084008 45 308 0.9 7.8 0.07 1.19 0.31 93 1006.3
20260506083503 45 317 2.6 7.8 0.07 1.19 0.31 93 1006.4
20260506083007 45 344 2.6 6.1 0.06 1.17 0.30 93 1006.1
20260506082501 45 25 2.6 9.6 0.06 1.16 0.29 93 1006.1
20260506082001 46 280 3.5 9.6 0.04 1.15 0.27 93 1006.2
20260506081512 46 8 2.6 7.8 0.03 1.14 0.26 93 1006.2
20260506081003 46 328 1.7 9.6 0.03 1.13 0.25 93 1006.0
20260506080503 46 327 1.7 9.6 0.03 1.13 0.25 93 1006.1
20260506073502 45 10 1.7 7.0 0.08 1.12 0.24 94 1005.6
20260506073004 45 21 3.5 7.0 0.09 1.12 0.24 94 1005.4
20260506072502 45 315 0.9 7.0 0.09 1.11 0.23 94 1005.8
20260506072002 45 323 1.7 5.2 0.10 1.11 0.23 94 1005.8
20260506071504 45 300 1.7 5.2 0.11 1.11 0.23 94 1005.9
20260506071003 45 18 1.7 4.3 0.11 1.10 0.22 94 1005.8
20260506070503 45 49 1.7 5.2 0.12 1.10 0.22 94 1005.8
20260506062502 46 14 2.6 8.7 0.09 1.02 0.14 93 1005.8
20260506062002 46 297 2.6 7.0 0.08 1.01 0.13 93 1005.7
20260506061503 46 4 2.6 7.8 0.07 1.00 0.12 93 1005.7
20260506061003 46 308 2.6 10.4 0.07 0.99 0.11 93 1005.7
20260506060505 46 331 3.5 10.4 0.06 0.98 0.10 94 1005.8
20260506051002 47 308 2.6 7.8 0.04 0.92 0.04 93 1006.0
20260506050501 48 329 1.7 7.8 0.04 0.92 0.04 93 1006.1
20260506045004 48 279 0.9 4.3 0.01 0.88 0.00 93 1006.4
20260506044511 48 314 0.9 3.5 0.01 0.88 0.00 93 1006.2
20260506044002 48 314 1.7 3.5 0.01 0.88 0.00 93 1006.1
20260506043505 48 4 1.7 3.5 0.01 0.88 0.00 93 1005.8
20260506043012 48 6 1.7 3.5 0.02 0.88 0.00 93 1006.1
20260506042506 48 34 0.9 2.6 0.02 0.88 0.00 93 1006.0
20260506042007 48 356 0.0 3.5 0.02 0.88 0.00 93 1006.0
20260506041517 48 30 0.9 3.5 0.03 0.88 0.00 93 1005.9
20260506041006 48 82 0.9 3.5 0.04 0.88 0.00 93 1005.9
20260506040507 48 37 0.9 3.5 0.05 0.88 0.00 93 1006.0
20260506040024 48 20 1.7 4.3 0.06 0.88 0.00 93 1006.0
20260506035506 48 23 1.7 4.3 0.07 0.88 0.88 92 1006.1
20260506035010 48 134 0.0 3.5 0.08 0.87 0.87 92 1006.1
20260506034504 48 99 0.9 4.3 0.09 0.87 0.87 92 1006.2
20260506034004 48 23 1.7 7.0 0.10 0.87 0.87 92 1006.5
20260506033502 48 139 0.9 8.7 0.10 0.87 0.87 92 1006.4
20260506033007 48 330 2.6 8.7 0.10 0.86 0.86 92 1006.5
20260506032504 49 17 1.7 7.8 0.11 0.86 0.86 93 1006.6
20260506032003 49 354 2.6 6.1 0.12 0.86 0.86 93 1006.7
20260506031514 49 305 0.0 3.5 0.13 0.85 0.85 93 1006.7
20260506031006 49 290 0.9 5.2 0.13 0.84 0.84 93 1006.8
20260506030506 49 345 1.7 8.7 0.12 0.83 0.83 93 1006.8
20260506030020 49 329 1.7 8.7 0.12 0.82 0.82 93 1007.0
20260506025508 49 287 4.3 8.7 0.13 0.81 0.81 93 1007.1
20260506025007 49 308 1.7 4.3 0.12 0.79 0.79 93 1007.1
20260506024527 49 271 0.9 7.0 0.12 0.78 0.78 93 1007.0
20260506024005 49 46 2.6 7.8 0.12 0.77 0.77 93 1006.9
20260506023507 49 345 1.7 9.6 0.13 0.77 0.77 93 1006.9
20260506023024 50 315 3.5 9.6 0.13 0.76 0.76 92 1006.8
20260506022506 50 328 4.3 7.0 0.14 0.75 0.75 93 1006.8
20260506022004 50 295 1.7 7.0 0.15 0.74 0.74 93 1006.9
20260506021510 50 340 2.6 6.1 0.15 0.72 0.72 93 1006.8
20260506021009 50 18 2.6 9.6 0.15 0.71 0.71 93 1006.8
20260506020507 51 72 2.6 9.6 0.17 0.71 0.71 93 1006.6
20260506020015 51 304 2.6 7.0 0.17 0.70 0.70 93 1006.7
20260506015506 52 328 3.5 7.0 0.16 0.68 0.68 93 1006.7
20260506015008 52 302 2.6 9.6 0.16 0.67 0.67 92 1006.5
20260506014520 53 327 3.5 9.6 0.15 0.66 0.66 91 1006.5
20260506014006 54 289 4.3 9.6 0.16 0.65 0.65 92 1006.2
20260506013505 54 300 2.6 10.4 0.16 0.64 0.64 90 1006.2
20260506013025 56 292 6.1 10.4 0.16 0.63 0.63 90 1006.1
20260506012507 58 264 2.6 7.0 0.15 0.61 0.61 92 1005.9
20260506012013 58 276 1.7 2.6 0.13 0.58 0.58 94 1006.0
20260506011539 58 248 0.9 1.7 0.12 0.57 0.57 94 1006.0
20260506011015 58 219 0.9 1.7 0.12 0.56 0.56 94 1005.9
20260506010509 58 285 0.0 1.7 0.11 0.54 0.54 94 1005.9
20260506010012 58 256 0.0 1.7 0.11 0.52 0.52 94 1005.7
20260506005503 58 283 0.0 3.5 0.11 0.52 0.52 94 1005.7
20260506005004 58 233 0.0 3.5 0.11 0.51 0.51 94 1005.6
20260506004532 58 267 0.0 2.6 0.12 0.51 0.51 93 1005.6
20260506004007 58 231 1.7 3.5 0.11 0.49 0.49 93 1005.8
20260506003507 58 249 1.7 4.3 0.11 0.48 0.48 93 1005.6
20260506003020 58 313 0.9 7.0 0.11 0.47 0.47 93 1005.6
20260506002507 58 219 1.7 7.0 0.11 0.46 0.46 93 1005.5
20260506002009 58 265 0.9 4.3 0.12 0.46 0.46 93 1005.4
20260506001525 58 245 1.7 5.2 0.11 0.45 0.45 93 1005.4
20260506001010 58 227 0.9 5.2 0.11 0.44 0.44 93 1005.4
20260506000502 58 276 0.9 6.1 0.12 0.43 0.43 93 1005.4
20260506000007 58 266 3.5 6.1 0.12 0.42 0.42 93 1005.3
20260505235502 58 276 2.6 6.1 0.12 0.41 0.41 93 1005.4
20260505235005 58 287 1.7 4.3 0.12 0.40 0.40 93 1005.5
20260505234510 58 239 1.7 4.3 0.12 0.39 0.39 93 1005.5
20260505234009 58 328 0.9 3.5 0.12 0.38 0.38 93 1005.6
20260505233506 58 182 0.9 3.5 0.12 0.37 0.37 93 1005.6
20260505233025 58 310 0.9 3.5 0.12 0.36 0.36 93 1005.5
20260505232510 58 234 0.9 2.6 0.11 0.35 0.35 93 1005.6
20260505232003 58 253 0.0 4.3 0.11 0.34 0.34 92 1005.6
20260505231503 58 293 0.0 4.3 0.11 0.34 0.34 92 1005.8
20260505231003 58 252 1.7 6.1 0.10 0.33 0.33 92 1006.1
20260505230503 59 219 1.7 6.1 0.08 0.31 0.31 92 1006.0
20260505230006 59 246 0.9 6.1 0.08 0.30 0.30 92 1006.1
20260505225505 59 274 1.7 5.2 0.08 0.29 0.29 92 1006.0
20260505225003 59 219 0.9 5.2 0.07 0.28 0.28 92 1006.1
20260505224506 59 269 0.9 6.1 0.07 0.27 0.27 92 1006.1
20260505224002 59 315 1.7 6.1 0.06 0.26 0.26 92 1006.1
20260505223505 59 198 0.0 3.5 0.07 0.25 0.25 92 1006.4
20260505223016 59 272 1.7 4.3 0.08 0.24 0.24 91 1006.4
20260505222503 59 264 2.6 6.1 0.09 0.24 0.24 91 1006.5
20260505222005 59 290 2.6 6.1 0.10 0.23 0.23 91 1006.2
20260505221515 59 296 1.7 8.7 0.16 0.23 0.23 91 1006.1
20260505221006 59 264 2.6 8.7 0.21 0.23 0.23 91 1006.2
20260505220507 59 227 1.7 6.1 0.23 0.23 0.23 91 1006.3
20260505220003 59 280 2.6 7.0 0.22 0.22 0.22 91 1006.3
20260505215505 59 264 2.6 7.0 0.21 0.21 0.21 91 1006.0